{"data":{"norad_id":63135,"epoch":"2026-09-20T23:33:29.170368Z","epoch_age_seconds":120635,"freshness":"FRESH","line1":"1 63135U 25043D   26263.98158762  .00356027  00000+0  26764-2 0  9996","line2":"2 63135  43.0003 153.8149 0001371 275.1920  84.8791 15.70701538 90068","mean_motion":15.70701538,"eccentricity":0.0001371,"inclination_deg":43.0003,"raan_deg":153.8149,"arg_perigee_deg":275.192,"mean_anomaly_deg":84.8791,"bstar":0.0026764,"rev_number":9006,"period_min":91.678779523803,"perigee_km":355.96746863303,"apogee_km":357.81421326701,"semimajor_km":6735.02784095,"source":"CELESTRAK","updated_at":"2026-09-22T09:00:49.790285Z"}}